706  
ASUS44 KMEG 241110  
RWRMEG  
MEMPHIS CWA HOURLY WEATHER ROUNDUP  
NATIONAL WEATHER SERVICE MEMPHIS TN  
600 AM CDT FRI MAY 24 2019  
   
..WEST TENNESSEE
 
 
 
CITY SKY/WX TMP DP RH WIND PRES REMARKS
 
MEMPHIS INTL FAIR 72 67 84 S9 30.10R  
NWS MEMPHIS N/A 69 N/A N/A MISG N/A  
JACKSON FAIR 66 64 93 CALM 30.12R  
COVINGTON CLEAR 66 66 100 CALM 30.10R  
SOMERVILLE CLEAR 68 66 94 CALM 30.10R  
BOLIVAR CLEAR 64 63 94 CALM 30.11R  
LEXINGTON CLEAR 63 63 100 CALM 30.12R FOG  
SELMER CLEAR 66 64 94 CALM 30.12R  
DYERSBURG FAIR 69 66 90 CALM 30.12R  
UNION CITY CLEAR 64 64 100 CALM 30.09R FOG  
PARIS CLEAR 66 64 94 CALM 30.11R  
HUNTINGDON CLEAR 66 64 94 CALM 30.11R  
 
   
..EASTERN ARKANSAS
 
 
 
CITY SKY/WX TMP DP RH WIND PRES REMARKS
 
JONESBORO FAIR 66 64 93 CALM 30.08R  
WEST MEMPHIS FAIR 72 68 87 SE3 30.08R  
BATESVILLE CLEAR 70 67 90 CALM 30.09R  
NEWPORT FAIR 67 65 93 SE6 30.08  
WALNUT RIDGE FAIR 68 65 90 S5 30.09R  
BLYTHEVILLE FAIR 71 64 78 S6 N/A  
SEARCY FAIR 67 67 100 CALM 30.08R FOG  
STUTTGART FAIR 72 68 88 S9 30.09R  
PINE BLUFF FAIR 70 66 87 S5 30.08R  
MONTICELLO FAIR 73 68 84 SW5 30.08R  
 
   
..NORTH MISSISSIPPI
 
 
 
CITY SKY/WX TMP DP RH WIND PRES REMARKS
 
TUPELO MOCLDY 70 67 90 N3 30.12R  
OXFORD FAIR 70 66 88 S5 30.13R  
BATESVILLE N/A 68 66 94 CALM 30.11R  
OLIVE BRANCH CLEAR 68 68 100 S5 30.11R FOG  
TUNICA N/A 68 64 88 S5 30.11R  
CLARKSDALE CLEAR 72 72 100 S5 30.10R  
CORINTH FAIR 66 66 100 CALM 30.12R  
GREENWOOD CLOUDY 74 70 87 S3 30.10R  
COLUMBUS FAIR 69 67 96 CALM 30.11R  
STARKVILLE MOCLDY 70 68 94 CALM 30.14R  
GOLDEN TRIANGL MOCLDY 71 70 96 S3 30.13R  
 
   
..SOUTHEAST MISSOURI
 
 
 
CITY SKY/WX TMP DP RH WIND PRES REMARKS
 
KENNETT FAIR 68 68 100 S3 30.08R  
WEST PLAINS CLEAR 70 66 87 S5 30.10R  
POPLAR BLUFF FAIR 66 66 100 CALM 30.09R FOG  
CAPE GIRARDEAU FAIR 66 64 93 CALM 30.09R  
 
   
..NORTHWEST ALABAMA
 
 
 
CITY SKY/WX TMP DP RH WIND PRES REMARKS
 
MUSCLE SHOALS FAIR 69 66 90 CALM 30.14R  
 
   
..MIDDLE TENNESSEE
 
 
 
CITY SKY/WX TMP DP RH WIND PRES REMARKS
 
NASHVILLE FAIR 68 62 81 CALM 30.15R  
CLARKSVILLE FAIR 65 62 90 CALM 30.12R FOG  
DICKSON SUNNY 68 63 83 CALM 30.14R  
COLUMBIA CLEAR 64 64 100 CALM 30.14R  
LAWRENCEBURG SUNNY 64 63 94 CALM 30.15R  
LEWISBURG SUNNY 61 61 100 CALM 30.15R  
 
   
..WESTERN KENTUCKY
 
 
 
CITY SKY/WX TMP DP RH WIND PRES REMARKS
 
PADUCAH FAIR 72 64 76 S3 30.09R  
FORT CAMPBELL FAIR 69 66 90 S3 30.12R  
 
   
..CENTRAL ARKANSAS
 
 
 
CITY SKY/WX TMP DP RH WIND PRES REMARKS
 
LITTLE ROCK CLEAR 70 66 87 CALM 30.07R  
 
SKY/WX REPORTED AS FAIR MEANS FEW OR NO CLOUDS BELOW  
12 THOUSAND FEET.  
 
 
 
CLICK HERE TO GO TO PREVIOUS BULLETINS.

The Nexlab TN Page
The Nexlab MS Page
The Nexlab AR Page Main Text Page